STARLINK-61

decayed
NORAD ID: 44249 Int'l Des: 2019-029 Owner: SPXS Country: US Constellation: starlink
LEOCIRCULAR
グループ

STARLINK-61について

説明を読み込み中...

高度履歴

Altitude vs Time

uPlot chart will show altitude changes over time

軌道要素

1 44249U 19029Q 22210.03096163 .25740958 12156-4 35232-2 0 9995
2 44249 52.9420 215.1003 0003573 169.2727 297.2850 16.34444947177195
Epoch: Jul 29, 2022 • Age: 27474 hours

現在のステータス

Position data unavailable
打ち上げ日 May 24, 2019
運用期間 6.3 years
落下予定日 Jul 29, 2022
タイプ internet

技術仕様

分類 Payload
質量 227.00 kg
乾燥質量 219.00 kg
総質量 227.00 kg
長さ 0.20 m
直径 2.80 m
スパン 9.00 m
形状 Box + pan
製造者 SPXS
バスタイプ Starlink
フェーズステータス Unknown Transfer Status
所有者/国 SPXS/US

大規模コンステレーション

Loading constellations...